Regional Weather Roundup
Issued by NWS

Home | Current Version | Previous Version | Graphics & Text | Print | Product List | Glossary On
Versions: 1 2 3 4 5 6 7 8 9 10 11 12 13 14 15 16 17 18 19 20 21 22 23 24 25 26 27 28 29 30 31 32 33 34 35 36 37 38 39 40 41 42 43 44 45 46 47 48 49 50
588
ASUS43 KLSX 210707
RWRMO

WEATHER SUMMARY FOR MISSOURI
NATIONAL WEATHER SERVICE SPRINGFIELD MO
200 AM CDT FRI JUL 21 2017

NOTE: "FAIR" INDICATES FEW OR NO CLOUDS BELOW 12,000 FEET WITH NO
       SIGNIFICANT WEATHER AND/OR OBSTRUCTIONS TO VISIBILITY.
       CURRENT SKY AND/OR WEATHER CONDITIONS ARE NOT AVAILABLE FOR
       CHILLICOTHE AND FARMINGTON.

MOZ001>031-035>038-043-044-053-054-210800-
...NORTHERN AND WESTERN MISSOURI...

CITY           SKY/WX    TMP DP  RH WIND       PRES   REMARKS
KANSAS CTY INT CLEAR     79  74  84 S10       29.96F
KANSAS C DTWN  CLEAR     84  74  71 S12       29.95S HX  91
LEE`S SUMMIT   CLEAR     82  74  76 SW9       29.98S
ST JOSEPH      CLEAR     79  76  90 S3        29.93F
CHILLICOTHE      N/A     82  77  84 S3        29.96S HX  90
KIRKSVILLE     PTCLDY    79  76  90 S3        29.98F

$$
MOZ066>068-077>081-088>096-101>105-210800-
...SOUTHWEST MISSOURI...

CITY           SKY/WX    TMP DP  RH WIND       PRES   REMARKS
SPRINGFIELD    CLEAR     75  72  90 S6        30.02F
JOPLIN         CLEAR     79  74  84 S8        30.01S
BRANSON        CLEAR     79  70  73 S3        30.05F

$$
MOZ032>034-039>042-045>050-055>058-069>072-210800-
...CENTRAL MISSOURI...

CITY           SKY/WX    TMP DP  RH WIND       PRES   REMARKS
COLUMBIA       CLEAR     80  74  81 SW5       29.99R
JEFFERSON CITY CLEAR     79  77  94 CALM      29.97S
ROLLA          CLEAR     76  72  87 S8        30.01S
WHITEMAN AFB   CLEAR     76  76 100 S8        29.97S
WARRENSBURG    PTCLDY    77  72  83 S5        29.97S
OSAGE BEACH    CLEAR     75  71  87 CALM      30.00F

$$
MOZ051-052-059>065-210800-
...EAST CENTRAL MISSOURI...

CITY           SKY/WX    TMP DP  RH WIND       PRES   REMARKS
ST LOUIS INTL  CLEAR     88  71  57 SW7       29.97F HX  94
SPIRIT OF STL  CLEAR     79  75  87 CALM      29.96S
ST CHARLES     CLEAR     79  76  90 MISG      29.95F

$$
MOZ072>076-082>087-097>100-106>115-210800-
...SOUTH CENTRAL AND SOUTHEAST MISSOURI...

CITY           SKY/WX    TMP DP  RH WIND       PRES   REMARKS
CAPE GIRARDEAU CLEAR     77  74  90 CALM      29.99F
FARMINGTON     CLEAR     80  74  81 CALM      30.02F
POPLAR BLUFF   CLEAR     81  77  88 CALM      29.99S
WEST PLAINS    CLEAR     79  74  84 SW6       30.05F

$$



USA.gov is the U.S. government's official web portal to all federal, state and local government web resources and services.